Regional Weather Roundup
Issued by NWS

Home | Current Version | Previous Version | Text Only | Print | Product List | Glossary On
Versions: 1 2 3 4 5 6 7 8 9 10 11 12 13 14 15 16 17 18 19 20 21 22 23 24 25 26 27 28 29 30 31 32 33 34 35 36 37 38 39 40 41 42 43 44 45 46 47 48 49 50
474
ASUS43 KTOP 242208
RWRKS

WEATHER ROUNDUP FOR KANSAS
NATIONAL WEATHER SERVICE GOODLAND KS
500 PM CDT WED AUG 24 2016

NOTE:  "FAIR" INDICATES FEW OR NO CLOUDS BELOW 12,000 FEET WITH NO
SIGNIFICANT WEATHER AND/OR OBSTRUCTIONS TO VISIBILITY.

KSZ001>006-013>018-027>032-041>047-242300-
NORTHWEST KANSAS

CITY           SKY/WX    TMP DP  RH WIND       PRES   REMARKS
GOODLAND       CLOUDY    65  44  46 E17       30.16S
HAYS           CLOUDY    75  55  50 NE16      30.05F
HILL CITY      CLOUDY    71  55  56 NE16      30.09S
RUSSELL        CLOUDY    74  63  68 NE16G24   30.03F
$$

KSZ061>065-074>080-084>089-242300-
SOUTHWEST KANSAS

CITY           SKY/WX    TMP DP  RH WIND       PRES   REMARKS
DODGE CITY     PTSUNNY   85  62  46 S10       30.00F
ELKHART          N/A     86  56  36 NE3         N/A
GARDEN CITY    CLOUDY    84  57  39 CALM      30.01S
GREAT BEND     PTSUNNY   79  63  57 N10       30.02S
LIBERAL        CLOUDY    84  55  37 SE6       30.04S
PRATT          DRIZZLE   80  63  55 SW7       30.01S
$$

KSZ066>073-081>083-090>101-242300-
SOUTHEAST KANSAS

CITY           SKY/WX    TMP DP  RH WIND       PRES   REMARKS
CHANUTE        MOSUNNY   93  70  46 S13       29.96F HX  99
COFFEYVILLE    MOSUNNY   97  68  38 S15G23    29.95F HX 102
HUTCHINSON     CLOUDY    85  69  58 N7        29.99S
MEDICINE LODGE   N/A     85  69  58 NW5       29.97R
NEWTON         CLOUDY    90  67  46 SW5       29.99S
PARSONS        SUNNY     95  65  37 S10G18    29.97F HX  97
WICHITA INTL   PTSUNNY   93  65  39 CALM      29.95S HX  95
WICHITA JABRA  CLOUDY    88  70  55 CALM      29.95F
WICHITA MCCONL PTSUNNY   86  68  54 W5        29.95F
WINFIELD       MOSUNNY   89  68  49 S10       29.96S
$$

KSZ007>012-019>026-033>040-048>060-102>105-242300-
NORTHEAST KANSAS

CITY           SKY/WX    TMP DP  RH WIND       PRES   REMARKS
CONCORDIA      CLOUDY    66  62  87 NE18G25   30.05F
EMPORIA        PTSUNNY   89  69  51 SW9       29.97S
LAWRENCE       CLOUDY    89  71  55 S5        29.98F HX  95
MANHATTAN      CLOUDY    83  69  62 W3        29.99S
MARYSVILLE     CLOUDY    75  68  78 N14       30.02R
OLATHE IND     MOSUNNY   87  72  60 S6        30.00S
OLATHE EXE     CLOUDY    85  71  63 S6        30.00S
SALINA         CLOUDY    79  71  76 N16       30.01R
TOPEKA BILLARD CLOUDY    88  70  55 E7        29.98F
TOPEKA FORBES  MOSUNNY   90  67  46 S6        29.98F
$$




USA.gov is the U.S. government's official web portal to all federal, state and local government web resources and services.